Location: Carella
(45.8167°N, 9.2667°E)
Time: 09:14:09
(UTC+00:00)

ATLAS 2AS CENTAUR R/B - Pass Details

Date: 30 March 2020
Orbit: 931 x 1280 km, 63.7° (Epoch: 30 May)

Event Time Altitude Azimuth Distance (km) Brightness Sun altitude
Rises 18:09:33 0° 310° (NW) 4,243 7.0 -4.3°
Reaches altitude 10° 18:13:11 10° 325° (NW) 3,248 6.0 -5.0°
Maximum altitude 18:19:13 23° 15° (NNE) 2,337 4.5 -6.0°
Drops below altitude 10° 18:24:57 10° 66° (ENE) 3,089 4.6 -7.0°
Enters shadow 18:26:58 - 75° (ENE) 3,608 4.9 -7.3°
